Location: Malcolm X Square
(37.7810°N, 122.4297°W)
Time: 00:02:11
(UTC+00:00)

Cosmos 1933 Rocket - Pass Details

Date: 13 April 2024
Orbit: 602 x 628 km, 82.5° (Epoch: 21 May)

Event Time Altitude Azimuth Distance (km) Brightness Sun altitude
Rises 12:50:32 0° 354° (N) 2,887 7.2 -9.6°
Reaches altitude 10° 12:52:46 10° 355° (N) 1,973 6.3 -9.1°
Maximum altitude 12:57:08 79° 82° (E) 624 3.7 -8.3°
Drops below altitude 10° 13:01:26 10° 170° (S) 1,945 6.0 -7.5°
Sets 13:03:38 0° 171° (S) 2,842 6.9 -7.1°
